Погода в Золотухе

Россия / Липецкая область     53°10′13″N   39°15′53″E
темп.,
°C
ветер,
м/с
пор.,
м/с
влажн.,
%
обл.,
%
осадки,
мм/ч
давл.,
гПа
погр.,
м
7 марта, вс
вс700:00−12з479160 0.0 1018112
03:00−13зюз479230 0.0 1017128
06:00−13юз510939 0.0 1014196
09:00−8юз9168455 0.0 1011655
12:00−4юз111881100 0.0 10071013
15:00−3юз121989100 0.2 10021263
18:00−2зюз111991100 0.6 9981181
21:00−1зюз122089100 0.8 9971228
8 марта, пн
пн800:00−6з7158098 1.8 999518
03:00−8зюз6138549 1.8 1001311
06:00−9зюз5128824 0.0 1001272
09:00−7зюз6129242 0.0 1001508
12:00−4з7118384 0.0 10021035
15:00−4з7108592 0.1 10031093
18:00−7сз4995100 0.2 1005338
21:00−12сз348866 0.2 100860
9 марта, вт
вт900:00−13сз34920 0.0 101032
03:00−15сз34959 0.0 101135
06:00−14сз339695 0.0 101347
09:00−13сз359492 0.0 1014162
12:00−10ссз359090 0.1 1015455
15:00−10сз468795 0.1 1017701
18:00−13сз3493100 0.1 101768
21:00−16сз349594 0.1 102039
10 марта, ср
ср1000:00−17ссз349682 0.0 102153
03:00−20ссз349764 0.0 102356
06:00−22ссз34960 0.0 102470
09:00−21ссз36930 0.0 1026208
12:00−18ссз35881 0.0 1027291
15:00−16ссз24837 0.0 1027360
18:00−18ссз228994 0.0 102720
21:00−21с228957 0.0 102920
11 марта, чт
чт1100:00−23всв01880 0.0 102920
03:00−22ююз22850 0.0 103020
06:00−22ю238345 0.0 103020
09:00−18ю358469 0.0 1030141
12:00−13ю468797 0.0 1030312
15:00−10ю589186 0.0 1028431
18:00−11ю499253 0.0 1027153
21:00−13ю4108927 0.0 1027161